Regional Weather Roundup
Issued by NWS Grand Forks, ND

Home | Current Version | Previous Version | Graphics & Text | Print | Product List | Glossary On
Versions: 1 2 3 4 5 6 7 8 9 10 11 12 13 14 15 16 17 18 19 20 21 22 23 24 25 26 27 28 29 30 31 32 33 34 35 36 37 38 39 40 41 42 43 44 45 46 47 48 49 50
000
ASUS43 KFGF 011210
RWRFGF
PRAIRIE TO PINES  WEATHER ROUNDUP
NATIONAL WEATHER SERVICE EASTERN NORTH DAKOTA/GRAND FORKS ND
700 AM CDT SUN MAY 01 2016

 **SATELLITE DATA USED TO AUGMENT SKY COVER AT AUTOMATED STATIONS**
 *****  WEATHER ACROSS EASTERN NORTH DAKOTA  *****

CITY           SKY/WX    TMP DP  RH WIND       PRES   REMARKS
GRAND FORKS    CLEAR     32  26  78 NW5       30.31R
6HR MIN TEMP:  28; 6HR MAX TEMP:  47;

GRAND FRKS AFB CLEAR     33  26  73 N5        30.31R
DEVILS LAKE    CLEAR     31  27  85 N3        30.32R
6HR MIN TEMP:  30; 6HR MAX TEMP:  37;

FARGO          CLEAR     33  26  75 N3        30.29R
WAHPETON ARPT  SUNNY     39  28  65 NE7       30.28R
$$

 ***** WEATHER ACROSS CENTRAL AND WESTERN NORTH DAKOTA  *****

CITY           SKY/WX    TMP DP  RH WIND       PRES   REMARKS
BISMARCK       CLEAR     34  30  85 W5        30.32R
6HR MIN TEMP:  30; 6HR MAX TEMP:  40;

MINOT          CLEAR     35  26  69 SW3       30.33R
6HR MIN TEMP:  35; 6HR MAX TEMP:  44;

JAMESTOWN      CLEAR     32  27  81 N7        30.29R
6HR MIN TEMP:  28; 6HR MAX TEMP:  38;

MINOT AFB      CLEAR     29  26  88 NW7       30.33R WCI  22
GARRISON         N/A     33  28  81 N8        30.32R
WILLISTON      CLEAR     33  27  78 CALM      30.34S
6HR MIN TEMP:  30; 6HR MAX TEMP:  47;

DICKINSON      CLEAR     30  24  78 W5        30.30S
6HR MIN TEMP:  28; 6HR MAX TEMP:  36;

HETTINGER      CLEAR     27  22  81 W3        30.33R
6HR MIN TEMP:  24; 6HR MAX TEMP:  31;

$$

 *****  OTHER AIRPORT OBSERVATIONS IN OUR AREA  *****

CITY           SKY/WX    TMP DP  RH WIND       PRES   REMARKS
WALHALLA       FAIR      32  32 100 CALM      30.33R
GRAFTON AIRPOR FAIR      37  30  75 N6        30.34R
VALLEY CITY AR FAIR      36  30  80 N5        30.31R
CANDO          FAIR      32  27  80 N8        30.35R WCI  25
CAVALIER APRT  FAIR      39  28  65 NW7       30.32R
GWINNER        FAIR      36  32  87 N8        30.28R
SHEYENNE NWR     N/A     33  28  80 N3        29.95S
ROLLA          FAIR      34  27  75 NW9       30.34R
 ***** THE ABOVE OBSERVATIONS ARE NON NWS ARE NOT QUALITY
       CONTROLLED AND MAY MIS-REPORT RAIN FOR SNOW...
$$

  *****  WEATHER ACROSS NORTHERN MINNESOTA  *****

CITY           SKY/WX    TMP DP  RH WIND       PRES   REMARKS
FLAG ISLAND    CLEAR     39  34  81 CALM      30.31R
WARROAD        PTCLDY    34  30  86 CALM      30.31S
ROSEAU         CLEAR     34  28  80 N3        30.31R
HALLOCK        CLEAR     34  27  75 CALM      30.31R
THF RVR FALLS  CLEAR     36  25  64 CALM      30.31R
6HR MIN TEMP:  34; 6HR MAX TEMP:  45;

BAUDETTE       PTCLDY    34  28  79 E3        30.30R
6HR MIN TEMP:  30; 6HR MAX TEMP:  43;

WASKISH        CLEAR     32  30  93 CALM      30.29S
CROOKSTON      CLEAR     36  28  75 CALM      30.31S
STEPHEN NDAWN    N/A     34  27  75 E1          N/A
GREENBUSH NDAW   N/A     37  34  87 CALM        N/A
$$
  *****  WEATHER ACROSS CENTRAL AND WEST MINNESOTA  *****

CITY           SKY/WX    TMP DP  RH WIND       PRES   REMARKS
FOSSTON        CLEAR     32  25  74 CALM      30.30R
BEMIDJI        CLEAR     29  26  89 CALM      30.28R
PARK RAPIDS    CLEAR     37  29  72 N5        30.26R
6HR MIN TEMP:  35; 6HR MAX TEMP:  43;

ELBOW LAKE     FAIR      38  30  73 E9        30.25R
WADENA         CLEAR     34  27  75 N7        30.25S
DETROIT LAKES  CLEAR     37  32  81 NE6       30.28R
MOORHEAD       CLEAR     34  27  75 N5        30.30R
FERGUS FALLS   CLEAR     37  28  70 NE5       30.25S
MORRIS MN      CLEAR     36  28  75 N8        30.22R
STAPLES        CLEAR     32  27  80 N5        30.25R
$$
  *****  WEATHER ELSEWHERE ACROSS MINNESOTA  *****

CITY           SKY/WX    TMP DP  RH WIND       PRES   REMARKS
DULUTH         SUNNY     35  27  72 NE6       30.23R
6HR MIN TEMP:  32; 6HR MAX TEMP:  36;

INTRNTL FALLS  CLEAR     33  29  85 CALM      30.30R
6HR MIN TEMP:  28; 6HR MAX TEMP:  40;

ELY            SUNNY     30  27  86 CALM      30.27R
CLOQUET        CLEAR     34  28  80 N6        30.23R
WHEATON        CLEAR     37  30  75 N6        30.27R
BRAINERD       CLEAR     35  28  75 NE7       30.25R
6HR MIN TEMP:  31; 6HR MAX TEMP:  37;

HIBBING        CLEAR     29  27  92 N5        30.26R WCI  24
6HR MIN TEMP:  23; 6HR MAX TEMP:  29;

ALEXANDRIA     CLEAR     37  28  70 NE10      30.23R
6HR MIN TEMP:  36; 6HR MAX TEMP:  42;

SAINT CLOUD    CLOUDY    37  30  75 N8        30.19R
6HR MIN TEMP:  34; 6HR MAX TEMP:  41;

MINNEAPOLIS    CLOUDY    42  33  70 NE9       30.15R
6HR MIN TEMP:  41; 6HR MAX TEMP:  47;

$$

  *****  WEATHER ACROSS SOUTH DAKOTA  *****

CITY           SKY/WX    TMP DP  RH WIND       PRES   REMARKS
SIOUX FALLS    LGT RAIN  41  37  86 N12       30.13R
6HR MIN TEMP:  41; 6HR MAX TEMP:  44; 6HR PCP:  0.05;

BROOKINGS      CLOUDY    34  29  82 NE9       30.16R
WATERTOWN      CLOUDY    35  27  72 NE7       30.19R
6HR MIN TEMP:  34; 6HR MAX TEMP:  44;

HURON          CLOUDY    34  30  85 N8        30.20R
6HR MIN TEMP:  33; 6HR MAX TEMP:  44;

SISSETON         N/A     36  29  75 NE9       30.24R
ABERDEEN       CLEAR     33  29  85 N6        30.26R
6HR MIN TEMP:  31; 6HR MAX TEMP:  41;

MITCHELL       CLOUDY    38  34  85 N10       30.18R
PIERRE         CLEAR     31  28  89 W7        30.24R WCI  24
6HR MIN TEMP:  31; 6HR MAX TEMP:  41;

MOBRIDGE       CLEAR     35  30  82 CALM      30.26R
RAPID CITY     CLOUDY    38  30  73 N13       30.29R
6HR MIN TEMP:  32; 6HR MAX TEMP:  41;

$$

  *****  SOME WEATHER IN NEARBY STATES *****

CITY           SKY/WX    TMP DP  RH WIND       PRES   REMARKS
GLASGOW MT     PTCLDY    34  28  79 SE6       30.33S
6HR MIN TEMP:  34; 6HR MAX TEMP:  43;

GREAT FALLS MT CLEAR     35  32  88 S5        30.32S
6HR MIN TEMP:  32; 6HR MAX TEMP:  41;

CHEYENNE WY    CLOUDY    30  27  88 N13       30.25R WCI  20
6HR MIN TEMP:  30; 6HR MAX TEMP:  31; 6HR PCP: TRACE;

SCOTTSBLUFF NE CLOUDY    37  33  85 NW7       30.26R
6HR MIN TEMP:  37; 6HR MAX TEMP:  38; 6HR PCP:  0.01;

OMAHA NE       LGT RAIN  45  43  93 NE8       29.98R
6HR MIN TEMP:  45; 6HR MAX TEMP:  48; 6HR PCP:  0.01;

DES MOINES IA  CLOUDY    46  42  86 NE10      29.97R
6HR MIN TEMP:  45; 6HR MAX TEMP:  46; 6HR PCP:  0.01;

DAVENPORT IA   CLOUDY    46  45  96 NE9       29.97R FOG
6HR MIN TEMP:  45; 6HR MAX TEMP:  46;

CHICAGO IL     FOG       42  42 100 N13       29.96R VSB 1/4
6HR MIN TEMP:  42; 6HR MAX TEMP:  45; 6HR PCP:  0.02;

EAU CLAIRE WI  CLOUDY    42  34  73 NE9       30.12R
6HR MIN TEMP:  42; 6HR MAX TEMP:  48;

LA CROSSE WI   CLOUDY    47  35  63 N6        30.08R
6HR MIN TEMP:  44; 6HR MAX TEMP:  48; 6HR PCP: TRACE;

$$

  *****  SOME NATIONAL WEATHER *****

CITY           SKY/WX    TMP DP  RH WIND       PRES   REMARKS
LA GUARDIA NY  LGT RAIN  50  38  63 S9        30.22R
6HR MIN TEMP:  50; 6HR MAX TEMP:  51; 6HR PCP: TRACE;

RALEIGH NC     CLOUDY    60  57  89 SE8       30.10S
6HR MIN TEMP:  59; 6HR MAX TEMP:  61;

ATLANTA GA     MOSUNNY   67  65  93 CALM      30.03R FOG
6HR MIN TEMP:  66; 6HR MAX TEMP:  69; 6HR PCP:  0.01;

NEW ORLEANS LA CLOUDY    77  73  87 S12       29.87R
6HR MIN TEMP:  69; 6HR MAX TEMP:  77;

OKLAHOMA CITY  PTCLDY    46  37  71 NW15G23   30.06R
6HR MIN TEMP:  46; 6HR MAX TEMP:  54;

ALBUQUERQUE NM CLOUDY    41  30  65 E35G48    29.95S
6HR MIN TEMP:  41; 6HR MAX TEMP:  47; 6HR PCP: TRACE;

SALT LAKE CITY MOCLDY    50  22  33 E18G32    30.02F
6HR MIN TEMP:  49; 6HR MAX TEMP:  52;

LOS ANGELES CA PTCLDY    56  51  84 E6        29.86R
6HR MIN TEMP:  56; 6HR MAX TEMP:  60;

BOISE ID       CLEAR    C1F1C2F2C3F3C4F4C5F5C6F6C7F7C8F8C9F9CaFaCbFbCcFcCd!


USA.gov is the U.S. government's official web portal to all federal, state and local government web resources and services.